Walterboro, SC

5:23 AM EDT on August 26, 2016 (GMT -0400)
Lowcountry Regional

Weather History for KRBW - March, 2014

Change the Weather History Date:

Monday, March 17, 2014

  Actual Average Record
Temperature  
Mean Temperature 50 °F -  
Max Temperature 59 °F 71 °F 84 °F (2015)
Min Temperature 41 °F 43 °F 37 °F (2011)
Degree Days  
Heating Degree Days 15    
Moisture  
Dew Point -    
Average Humidity    
Maximum Humidity    
Minimum Humidity    
Precipitation  
Precipitation 0.00 in - - ()
Sea Level Pressure  
Sea Level Pressure 29.78 in    
Wind  
Wind Speed 4 mph (NE)    
Max Wind Speed 16 mph    
Max Gust Speed 23 mph    
Visibility 9 miles    
Events Rain    
Averages and records for this station are not official NWS values.
T = Trace of Precipitation, MM = Missing Value Source: NWS Daily Summary

Daily Weather History Graph

Daily Weather History Graph

Search for Another Location

Airport or City:

Trip Planner

Search our weather history database for the weather conditions in past years. The results will help you decide how hot, cold, wet, or windy it might be!

Date:

Astronomy

Mar. 17, 2014 Rise Set
Actual Time 7:30 AM EDT 7:31 PM EDT
Civil Twilight 7:05 AM EDT 7:56 PM EDT
Nautical Twilight 6:36 AM EDT 8:25 PM EDT
Astronomical Twilight 6:08 AM EDT 8:54 PM EDT
Moon 8:41 PM EDT (3/17) 7:49 AM EDT (3/17)
Length of Visible Light 12h 50m
Length of Day
12h 01m
Full, 99% of the Moon is Illuminated
Mar 17
Full
Mar 23
Last Quarter
Mar 30
New
Apr 7
First Quarter
Apr 15
Full

Hourly Weather History & Observations

Time (EDT) Temp. Windchill Dew Point Humidity Pressure Visibility Wind Dir Wind Speed Gust Speed Precip Events Conditions
12:15 AM 59.0 °F - - N/A% 29.78 in 4.0 mi Calm Calm - N/A Rain Light Rain
12:35 AM 59.0 °F - - N/A% 29.77 in 4.0 mi Calm Calm - N/A Rain Light Rain
12:55 AM 59.0 °F - - N/A% 29.76 in 10.0 mi SW 6.9 mph - N/A Rain Light Rain
1:15 AM 59.0 °F - - N/A% 29.77 in 10.0 mi SW 8.1 mph - N/A Rain Light Rain
1:35 AM 59.0 °F - - N/A% 29.76 in 10.0 mi SW 8.1 mph - N/A Rain Light Rain
1:55 AM 59.0 °F - - N/A% 29.75 in 10.0 mi SW 8.1 mph - N/A Rain Rain
2:15 AM 59.0 °F - - N/A% 29.73 in 10.0 mi SW 6.9 mph - N/A Rain Rain
2:35 AM 59.0 °F - - N/A% 29.73 in 10.0 mi WSW 8.1 mph - N/A Rain Light Rain
2:55 AM 59.0 °F - - N/A% 29.72 in 10.0 mi Calm Calm - N/A Rain Light Rain
3:15 AM 59.0 °F - - N/A% 29.71 in 10.0 mi SSW 5.8 mph - N/A Rain Rain
3:35 AM 59.0 °F - - N/A% 29.70 in 10.0 mi South 6.9 mph - N/A Rain Light Rain
3:55 AM 59.0 °F - - N/A% 29.69 in 10.0 mi Calm Calm - N/A Rain Light Rain
4:15 AM 57.2 °F - - N/A% 29.68 in 10.0 mi Calm Calm - N/A   Drizzle
4:35 AM 57.2 °F - - N/A% 29.69 in 10.0 mi Calm Calm - N/A Rain Light Rain
4:55 AM 57.2 °F - - N/A% 29.69 in 10.0 mi Calm Calm - N/A Rain Light Rain
5:15 AM 57.2 °F - - N/A% 29.69 in 10.0 mi Calm Calm - N/A Rain Rain
5:35 AM 57.2 °F - - N/A% 29.70 in 10.0 mi Calm Calm - N/A Rain Light Rain
5:55 AM 57.2 °F - - N/A% 29.71 in 7.0 mi Calm Calm - N/A Rain Light Rain
6:15 AM 57.2 °F - - N/A% 29.72 in 10.0 mi Calm Calm - N/A Rain Light Rain
6:35 AM 57.2 °F - - N/A% 29.72 in 10.0 mi Calm Calm - N/A Rain Light Rain
6:55 AM 57.2 °F - - N/A% 29.74 in 10.0 mi Calm Calm - N/A   Drizzle
7:15 AM 57.2 °F - - N/A% 29.75 in 7.0 mi Calm Calm - N/A   Drizzle
7:35 AM 57.2 °F - - N/A% 29.73 in 7.0 mi NNE 3.5 mph - N/A   Light Drizzle
7:55 AM 57.2 °F - - N/A% 29.72 in 10.0 mi Calm Calm - N/A   Overcast
8:15 AM 57.2 °F - - N/A% 29.68 in 10.0 mi East 6.9 mph - N/A   Mostly Cloudy
8:35 AM 57.2 °F - - N/A% 29.75 in 10.0 mi Calm Calm - N/A   Light Drizzle
8:55 AM 57.2 °F - - N/A% 29.72 in 10.0 mi Calm Calm - N/A   Overcast
9:15 AM 50.0 °F - - N/A% 29.73 in 10.0 mi NNE 16.1 mph 23.0 mph N/A   Overcast
9:35 AM 46.4 °F 42.4 °F - N/A% 29.73 in 10.0 mi NNE 8.1 mph 18.4 mph N/A   Overcast
9:55 AM 46.4 °F 42.9 °F - N/A% 29.78 in 10.0 mi NE 6.9 mph - N/A   Overcast
10:15 AM 46.4 °F 41.9 °F - N/A% 29.78 in 7.0 mi NNE 9.2 mph - N/A   Light Drizzle
10:35 AM 46.4 °F 44.3 °F - N/A% 29.78 in 10.0 mi NNE 4.6 mph - N/A Rain Light Rain
10:55 AM 46.4 °F - - N/A% 29.80 in 5.0 mi Calm Calm - N/A   Drizzle
11:15 AM 44.6 °F 40.2 °F - N/A% 29.80 in 10.0 mi NE 8.1 mph - N/A Rain Light Rain
11:35 AM 44.6 °F 42.2 °F - N/A% 29.82 in 7.0 mi NNW 4.6 mph - N/A   Overcast
11:55 AM 44.6 °F 40.2 °F - N/A% 29.82 in 10.0 mi NE 8.1 mph - N/A Rain Light Rain
12:15 PM 44.6 °F 40.7 °F - N/A% 29.84 in 10.0 mi NNE 6.9 mph - N/A Rain Rain
12:35 PM 44.6 °F 41.4 °F - N/A% 29.83 in 2.5 mi NE 5.8 mph - N/A   Heavy Drizzle
12:55 PM 44.6 °F 43.1 °F - N/A% 29.83 in 3.0 mi NNE 3.5 mph - N/A Rain Light Rain
1:15 PM 44.6 °F 42.2 °F - N/A% 29.82 in 7.0 mi NE 4.6 mph - N/A Rain Rain
1:35 PM 44.6 °F 42.2 °F - N/A% 29.82 in 10.0 mi NE 4.6 mph - N/A Rain Rain
1:55 PM 44.6 °F 40.7 °F - N/A% 29.81 in 4.0 mi NE 6.9 mph - N/A   Drizzle
2:35 PM 44.6 °F 41.4 °F - N/A% 29.81 in 5.0 mi NNE 5.8 mph - N/A Rain Rain
2:55 PM 44.6 °F 40.7 °F - N/A% 29.81 in 7.0 mi NE 6.9 mph - N/A Rain Rain
3:15 PM 44.6 °F 40.2 °F - N/A% 29.79 in 7.0 mi ENE 8.1 mph - N/A Rain Light Rain
3:35 PM 42.8 °F 38.6 °F - N/A% 29.79 in 10.0 mi NE 6.9 mph - N/A Rain Light Rain
4:15 PM 42.8 °F 38.6 °F - N/A% 29.79 in 10.0 mi NE 6.9 mph - N/A Rain Rain
4:55 PM 42.8 °F 39.3 °F - N/A% 29.81 in 10.0 mi NE 5.8 mph - N/A Rain Rain
5:15 PM 42.8 °F 40.1 °F - N/A% 29.80 in 10.0 mi NE 4.6 mph - N/A Rain Light Rain
5:35 PM 42.8 °F 36.6 °F - N/A% 29.78 in 10.0 mi ENE 11.5 mph - N/A Rain Light Rain
5:55 PM 42.8 °F 36.6 °F - N/A% 29.77 in 10.0 mi East 11.5 mph - N/A Rain Light Rain
6:15 PM 42.8 °F 36.6 °F - N/A% 29.75 in 10.0 mi East 11.5 mph - N/A Rain Rain
6:35 PM 42.8 °F 39.3 °F - N/A% 29.79 in 10.0 mi NNE 5.8 mph - N/A   Drizzle
6:55 PM 42.8 °F 39.3 °F - N/A% 29.80 in 10.0 mi North 5.8 mph - N/A Rain Rain
7:15 PM 42.8 °F 38.6 °F - N/A% 29.82 in 10.0 mi North 6.9 mph - N/A   Overcast
7:35 PM 42.8 °F 40.1 °F - N/A% 29.82 in 10.0 mi NNE 4.6 mph - N/A   Overcast
7:55 PM 41.0 °F 36.4 °F - N/A% 29.82 in 10.0 mi NNE 6.9 mph - N/A   Overcast
8:15 PM 41.0 °F 35.8 °F - N/A% 29.81 in 10.0 mi NE 8.1 mph - N/A   Overcast
8:35 PM 41.0 °F 35.8 °F - N/A% 29.83 in 10.0 mi NE 8.1 mph - N/A   Overcast
8:55 PM 41.0 °F 37.1 °F - N/A% 29.83 in 10.0 mi NE 5.8 mph - N/A   Overcast
9:15 PM 41.0 °F 35.2 °F - N/A% 29.85 in 10.0 mi NE 9.2 mph - N/A   Overcast
9:35 PM 41.0 °F 35.8 °F - N/A% 29.86 in 10.0 mi NE 8.1 mph - N/A   Overcast
9:55 PM 41.0 °F 38.0 °F - N/A% 29.88 in 3.0 mi North 4.6 mph - N/A   Overcast
10:15 PM 41.0 °F 37.1 °F - N/A% 29.87 in 4.0 mi NNE 5.8 mph - N/A   Haze
10:35 PM 41.0 °F 35.8 °F - N/A% 29.87 in 5.0 mi NE 8.1 mph - N/A   Haze
10:55 PM 41.0 °F 37.1 °F - N/A% 29.88 in 7.0 mi NNE 5.8 mph - N/A   Overcast
11:15 PM 41.0 °F 38.0 °F - N/A% 29.87 in 10.0 mi NNE 4.6 mph - N/A   Overcast
11:35 PM 41.0 °F 35.8 °F - N/A% 29.88 in 10.0 mi NNE 8.1 mph - N/A   Overcast
11:55 PM 41.0 °F 35.8 °F - N/A% 29.88 in 10.0 mi North 8.1 mph - N/A   Overcast